Probability
52 48 48 51 51 47 45 44 43 40 37 34 32 28 23 19 16 14 12 9 10 10 7 6 7 12 14 10 6 4 3 3 3 3 3 5 8 8 6 7 8 7 7
55 52 52 54 54 50 47 45 45 44 39 35 32 28 22 17 15 14 12 9 9 9 8 6 8 11 12 9 6 5 3 3 3 3 3 5 9 9 8 7 6 5 5
58 57 57 59 59 55 50 47 46 44 40 34 30 26 21 15 12 11 10 9 9 9 8 8 10 12 12 9 8 7 5 4 4 4 3 5 7 9 10 8 5 3 3
62 61 60 61 60 56 52 48 46 43 38 32 27 23 17 12 10 9 8 9 10 10 10 10 11 13 12 10 8 7 6 6 7 6 5 4 6 9 11 10 6 5 5
65 63 61 59 56 53 50 48 46 43 38 33 26 18 12 9 7 6 6 7 9 11 10 10 11 12 11 8 5 4 4 5 7 7 7 5 6 10 13 11 8 7 7
63 62 59 56 53 49 47 46 46 42 37 33 26 18 12 8 5 3 2 3 6 9 9 10 12 12 9 5 2 1 1 2 4 6 6 5 5 9 12 11 8 7 7
59 56 53 51 50 48 45 45 43 38 33 30 26 21 16 10 4 1 0 1 2 6 8 11 12 11 9 7 4 2 1 1 1 3 4 4 4 6 9 10 8 6 6
53 50 46 45 46 46 45 44 40 34 31 30 28 23 18 12 5 1 0 0 1 4 8 10 11 10 9 8 6 3 2 1 0 1 2 2 3 4 5 7 6 5 5
47 44 41 41 43 43 42 40 37 34 31 29 26 22 18 13 7 1 0 1 3 7 9 10 9 9 7 6 6 5 3 2 1 1 1 1 1 1 2 2 2 3 3
45 43 40 39 39 37 37 36 35 34 31 28 24 21 18 14 8 2 1 3 7 11 13 11 8 5 4 4 5 6 4 3 3 2 1 0 0 0 0 0 0 1 1
44 42 39 37 33 32 33 34 33 32 30 27 24 21 19 16 10 3 1 3 8 12 14 13 8 3 1 1 2 3 3 3 3 3 2 1 0 0 0 0 0 0 0
41 38 36 32 27 26 29 30 29 28 27 26 24 21 19 17 12 4 1 2 5 10 12 11 7 2 0 0 0 1 1 1 2 3 2 1 0 0 0 0 0 0 0
36 32 29 25 21 20 22 23 23 23 24 23 22 19 18 18 13 6 2 1 2 5 7 6 4 1 0 0 0 0 0 0 1 2 2 1 0 0 0 0 0 0 0
29 26 22 18 16 15 16 16 17 18 20 19 18 16 17 17 14 8 5 2 2 2 2 2 1 0 0 0 0 0 0 0 0 1 1 0 0 0 0 0 0 0 0
25 22 17 13 12 11 12 11 11 12 13 12 11 11 12 13 11 8 6 5 4 3 1 0 0 0 0 0 0 0 0 0 0 0 0 0 0 0 0 0 0 0 0
25 22 16 12 10 9 9 8 6 6 5 4 4 5 5 6 5 4 4 4 3 2 1 1 1 1 1 1 1 0 0 1 1 0 0 0 0 0 0 0 0 0 0
24 21 15 11 9 9 8 7 5 4 2 1 1 1 1 1 1 1 2 2 1 1 2 3 4 3 2 2 1 0 1 2 2 1 0 0 0 0 0 0 0 0 0
19 16 12 9 8 8 8 7 6 5 5 3 1 0 0 0 0 0 1 1 1 2 4 5 5 4 3 3 1 0 1 2 3 2 1 0 0 0 0 0 0 0 0
14 11 8 7 7 7 7 7 7 7 6 4 2 0 0 0 0 0 1 2 2 3 4 6 5 4 3 2 1 0 1 2 2 2 1 0 0 0 0 0 0 0 0
11 8 7 7 7 7 7 7 8 8 7 5 2 1 1 1 0 0 1 2 2 2 3 4 3 3 2 1 0 0 0 1 1 1 0 0 0 0 0 0 0 0 0
7 6 6 8 9 9 9 9 8 8 6 4 2 1 1 1 0 0 0 1 1 0 1 1 1 1 1 0 0 0 0 0 0 0 0 0 0 0 0 0 0 0 0
5 5 6 9 10 10 9 8 8 6 5 3 1 0 1 1 0 0 0 0 0 0 0 0 0 0 0 0 0 0 0 0 0 0 0 0 0 0 0 0 0 0 0
5 4 4 7 8 7 6 6 6 5 4 2 1 0 0 0 0 0 0 0 0 0 0 0 0 0 0 0 0 0 0 0 0 0 0 0 0 0 0 0 0 0 0
6 5 4 5 5 4 3 4 4 3 2 1 0 0 0 0 0 0 0 0 0 0 0 0 0 0 0 0 0 0 0 0 1 0 0 0 0 0 0 0 0 1 1
6 6 5 5 4 2 2 2 2 1 1 0 0 0 0 0 0 0 0 0 0 0 0 0 0 0 0 0 0 0 0 0 0 0 0 0 0 0 0 0 0 0 0
6 6 6 5 3 2 1 1 1 0 0 0 0 0 0 0 0 0 0 0 0 0 0 0 0 0 0 0 0 0 0 0 0 0 0 0 0 0 0 0 0 0 0
Wind_Speed
6 6 4 4 4 3 2 1 1 1 0 1 1 1 1 1 1 1 1 1 0 0 1 1 1 2 2 2 1 1 1 1 1 1 0 1 1 1 0 1 2 2 2
6 5 5 4 4 3 3 2 1 1 1 1 1 1 1 2 1 1 1 1 1 1 2 2 3 2 2 2 2 2 1 0 1 1 1 1 1 1 1 1 1 2 2
7 6 5 4 4 3 2 2 2 2 1 1 1 1 1 2 2 1 1 1 2 2 2 3 3 3 3 2 2 2 1 1 0 0 1 1 1 1 1 1 1 0 1
5 5 5 4 4 3 3 3 2 2 2 1 2 2 2 2 2 1 1 2 2 2 3 3 3 3 3 3 2 2 2 1 1 0 0 1 2 2 1 1 1 0 0
5 5 4 4 4 4 3 3 3 3 3 2 2 2 2 2 3 2 1 2 2 2 3 3 4 5 6 4 3 3 3 2 1 1 1 2 2 2 2 1 1 1 1
5 5 5 4 4 4 4 3 3 3 3 3 3 3 3 4 6 6 4 3 3 3 3 3 3 4 6 6 7 7 5 3 2 2 2 2 2 2 3 2 1 1 0
6 5 5 4 4 4 4 4 3 3 3 3 3 4 4 5 6 6 6 3 3 3 3 3 3 5 5 4 4 4 5 6 4 2 2 2 2 3 3 3 2 1 0
6 5 5 4 3 4 4 3 3 3 3 3 3 3 4 5 6 5 5 2 3 4 4 4 4 4 5 5 4 4 4 5 4 2 2 2 2 3 3 2 2 1 1
5 5 5 4 4 4 3 3 2 3 3 3 3 4 4 5 6 5 3 1 2 4 4 5 4 4 6 5 3 4 4 3 5 5 4 3 3 4 3 3 3 2 1
4 4 4 4 4 4 3 3 2 2 3 4 4 4 4 4 5 5 4 1 2 2 3 4 6 5 5 4 2 2 2 2 2 3 3 3 2 3 4 3 3 2 2
4 4 4 4 4 4 3 2 3 3 4 4 4 4 4 4 5 6 5 2 2 2 3 3 3 4 4 4 3 2 1 1 0 1 2 2 2 2 3 3 3 3 2
5 5 5 4 3 4 3 2 3 3 4 4 4 4 3 4 4 4 5 3 3 2 2 2 2 2 2 3 3 3 3 2 1 1 2 2 2 2 2 2 3 3 3
5 5 4 4 4 3 3 2 2 1 2 3 3 3 3 3 3 4 3 2 2 2 2 3 1 1 1 1 2 3 3 2 2 2 2 2 2 1 1 2 2 2 3
5 4 4 4 5 5 4 3 3 2 2 2 3 3 3 3 3 2 2 2 3 2 2 2 2 1 1 1 3 2 1 2 2 2 2 1 1 1 2 2 2 2 2
4 4 4 4 5 5 6 6 5 5 3 3 3 3 3 3 2 2 2 2 1 2 1 1 2 2 2 1 1 1 1 2 2 2 2 1 1 2 1 2 2 2 2
3 3 3 3 4 4 5 6 11 9 10 10 9 6 5 4 3 3 3 3 3 3 2 2 2 1 2 2 1 1 2 2 2 2 2 2 2 2 2 2 2 2 2
3 3 3 3 4 4 4 4 5 6 9 10 9 8 6 5 5 4 3 3 2 2 2 2 2 1 2 2 2 2 2 2 2 2 2 2 2 2 2 2 2 2 2
3 3 3 2 3 3 3 3 3 4 4 4 5 5 5 5 4 4 4 3 2 2 2 2 2 2 2 2 2 2 2 2 2 2 2 2 2 2 2 1 1 2 1
3 3 2 2 2 3 3 4 4 4 4 4 4 3 2 3 3 2 2 1 2 2 2 2 2 2 2 2 2 2 2 2 2 2 2 2 2 2 2 2 2 2 1
3 3 2 2 2 3 3 3 4 4 4 4 3 3 3 3 2 2 1 1 2 1 1 2 2 2 2 1 2 1 2 2 2 2 2 2 2 2 2 2 2 2 1
3 3 3 3 3 3 3 3 3 3 3 4 3 4 3 2 2 2 2 1 1 2 2 2 3 3 2 2 2 2 2 2 2 2 2 2 3 3 2 2 2 2 2
3 3 3 3 3 3 3 3 3 3 4 4 4 4 3 1 1 2 2 2 2 2 2 3 3 3 2 2 3 2 3 3 3 3 3 3 2 2 2 2 2 2 2
3 4 4 3 3 4 4 3 3 3 3 4 3 3 2 1 1 2 2 2 2 2 2 2 2 2 2 3 3 3 3 3 3 4 4 4 3 3 2 2 3 3 3
3 4 4 4 4 4 4 4 3 3 3 3 3 3 2 2 2 3 2 2 2 2 2 2 3 4 4 3 3 4 4 4 4 4 6 5 5 4 3 3 3 4 3
3 3 4 4 4 4 4 3 3 3 3 3 3 2 2 2 2 2 2 2 2 2 2 2 2 3 5 7 7 6 5 5 5 5 5 5 5 4 4 4 3 3 3
3 3 3 3 3 3 3 3 3 3 2 3 2 2 2 2 3 3 2 2 2 2 2 2 4 5 6 6 8 7 5 5 5 6 5 4 4 4 4 4 5 4 4
Wind_Direction
177 180 171 167 169 173 187 200 194 183 158 130 117 116 134 116 128 140 139 140 135 47 341 20 1 348 346 343 345 355 13 88 171 277 296 333 357 327 95 163 170 145 150
166 167 168 159 159 165 171 168 165 155 129 123 141 127 115 113 118 104 71 48 35 32 7 11 9 358 7 354 357 358 360 31 192 250 299 293 264 267 239 211 191 167 167
162 168 163 153 149 150 149 143 125 120 126 125 115 105 102 99 95 89 80 67 50 45 35 36 21 15 15 5 356 355 333 334 100 180 292 333 345 339 322 277 145 199 174
153 159 147 140 138 136 130 122 115 107 98 91 94 93 90 87 77 75 81 82 67 57 48 49 40 32 21 5 5 355 353 0 33 77 23 13 9 351 354 349 27 315 106
139 134 129 129 130 127 123 119 112 111 108 94 92 86 88 82 51 44 54 86 78 68 56 51 51 56 56 43 29 13 4 9 23 51 43 18 13 3 339 328 2 354 65
122 122 118 123 128 127 123 117 113 107 101 95 88 76 61 57 51 53 55 53 60 60 51 40 48 49 54 60 53 46 41 35 22 32 29 22 1 346 332 332 345 345 3
114 118 120 125 128 127 121 115 112 111 105 93 86 85 82 57 47 51 54 55 63 61 56 39 26 36 39 33 47 46 42 46 57 62 47 23 8 349 336 335 333 282 193
121 125 127 130 127 118 114 111 111 110 106 99 93 90 89 60 45 46 40 53 64 67 61 52 50 39 31 25 34 47 47 38 35 68 60 37 31 358 339 331 328 353 92
127 127 129 129 126 119 116 120 116 114 110 103 96 91 88 71 48 45 38 76 83 84 76 61 51 46 26 34 44 52 50 40 45 57 58 56 46 29 9 7 3 10 45
118 117 111 108 115 115 115 111 110 117 118 115 103 98 98 90 61 52 44 71 86 96 100 83 56 34 19 30 57 67 56 21 17 34 48 41 47 44 36 33 20 13 29
105 101 102 100 105 110 109 113 119 117 118 118 113 105 94 90 76 60 51 58 48 74 88 84 65 40 31 25 38 48 20 345 10 70 75 59 46 50 47 41 32 35 44
95 94 93 94 101 105 107 109 119 129 131 131 129 121 108 96 77 71 67 60 41 54 67 80 92 77 50 12 26 10 6 1 6 51 57 53 50 45 47 55 52 51 53
98 96 95 91 81 84 97 105 109 116 130 127 123 117 103 93 83 80 90 79 66 71 54 47 50 143 84 54 35 18 22 3 16 47 43 38 44 47 45 50 63 68 53
107 105 103 98 88 67 56 59 56 36 56 87 96 99 99 89 74 69 87 91 91 88 79 80 85 57 31 50 51 37 19 24 33 45 39 26 27 45 49 43 42 46 59
112 112 106 99 99 86 68 46 52 50 46 56 56 73 86 89 49 53 77 69 68 74 67 99 88 85 82 73 65 49 27 31 29 21 22 21 29 35 36 39 32 28 51
121 124 118 114 107 107 105 80 53 60 64 66 67 79 83 87 93 80 66 61 61 69 87 100 81 65 60 59 48 43 45 38 19 13 18 11 12 19 27 32 33 33 40
97 100 106 112 115 115 115 114 103 73 64 61 61 69 82 84 77 75 72 66 54 78 88 88 75 56 43 38 36 35 33 30 15 7 9 2 358 7 24 30 34 31 25
96 86 90 106 114 118 120 125 128 122 106 85 65 67 81 84 77 68 67 67 68 78 65 69 62 56 51 44 40 32 28 31 10 359 10 8 7 5 9 14 34 25 8
103 102 97 100 104 109 120 122 114 108 106 108 107 86 90 105 93 75 82 54 77 71 70 76 73 65 53 39 32 20 26 34 16 5 10 358 352 354 3 1 13 11 354
106 110 126 129 125 121 119 119 113 107 103 102 105 102 110 112 104 100 103 39 56 62 48 59 74 74 66 47 33 12 25 34 15 359 3 348 341 342 346 351 356 353 343
136 141 154 147 132 122 113 109 109 110 110 106 99 99 107 119 117 112 105 76 48 41 45 43 52 55 51 45 36 26 31 30 11 354 358 350 349 345 336 339 339 336 336
145 145 142 137 128 119 113 113 114 110 107 106 109 111 113 95 86 89 84 79 69 62 57 52 53 51 43 44 40 25 22 17 4 356 350 340 332 332 333 338 342 335 328
152 147 143 137 127 125 127 123 118 113 110 110 115 118 131 151 98 91 88 79 76 70 67 67 68 59 48 50 52 41 25 12 354 351 345 333 324 320 324 335 331 325 330
135 138 141 138 137 140 131 127 128 127 120 115 115 120 125 120 100 92 91 88 88 85 76 65 61 59 61 62 62 56 40 21 4 357 346 330 328 337 340 332 325 330 331
135 135 137 135 134 129 125 128 132 128 125 122 122 122 118 108 99 100 95 95 96 96 96 92 76 68 69 70 65 58 44 32 25 360 334 322 325 338 335 331 331 331 337
148 147 137 134 133 129 130 135 129 125 124 123 120 114 111 109 98 87 81 77 81 88 81 78 81 79 77 77 73 69 49 27 13 354 329 316 323 337 340 329 329 331 338